WBANNO,USDM_WEEK,LONGITUDE,LATITUDE,SMVWC_5_CM_MEAN,SMANOM_5_CM_MEAN,SMPERC_5_CM_30COUNTS,SMPERC_5_CM_70COUNTS,SMVWC_10_CM_MEAN,SMANOM_10_CM_MEAN,SMPERC_10_CM_30COUNTS,SMPERC_10_CM_70COUNTS,SMVWC_20_CM_MEAN,SMANOM_20_CM_MEAN,SMPERC_20_CM_30COUNTS,SMPERC_20_CM_70COUNTS,SMVWC_50_CM_MEAN,SMANOM_50_CM_MEAN,SMPERC_50_CM_30COUNTS,SMPERC_50_CM_70COUNTS,SMVWC_100_CM_MEAN,SMANOM_100_CM_MEAN,SMPERC_100_CM_30COUNTS,SMPERC_100_CM_70COUNTS,SMVWC_TOP_CM_MEAN,SMANOM_TOP_CM_MEAN,SMPERC_TOP_CM_30COUNTS,SMPERC_TOP_CM_70COUNTS,SMVWC_COLUMN_CM_MEAN,SMANOM_COLUMN_CM_MEAN,SMPERC_COLUMN_CM_30COUNTS,SMPERC_COLUMN_CM_70COUNTS
63891,20240227,-86.61,32.85,,,,,,,,,,,,,,,,,,,,,,,,,,,,
63891,20240228,-86.61,32.85,,,,,,,,,,,,,,,,,,,,,,,,,,,,
63891,20240229,-86.61,32.85,,,,,,,,,,,,,,,,,,,,,,,,,,,,
63891,20240301,-86.61,32.85,,,,,,,,,,,,,,,,,,,,,,,,,,,,
63891,20240302,-86.61,32.85,,,,,,,,,,,,,,,,,,,,,,,,,,,,
63891,20240303,-86.61,32.85,0.139,,,,0.166,,,,0.266,,,,0.246,,,,,,,,0.152,,,,,,,
63891,20240304,-86.61,32.85,0.141,,,,0.168,,,,0.268,,,,0.248,,,,,,,,0.155,,,,,,,
63891,20240305,-86.61,32.85,0.143,,,,0.171,,,,0.27,,,,0.252,,,,,,,,0.157,,,,,,,
63891,20240306,-86.61,32.85,0.146,,,,0.173,,,,0.273,,,,0.256,,,,,,,,0.16,,,,,,,
63891,20240307,-86.61,32.85,0.15,,,,0.176,,,,0.276,,,,0.26,,,,,,,,0.163,,,,,,,
63891,20240308,-86.61,32.85,0.153,,,,0.18,,,,0.28,,,,0.265,,,,,,,,0.166,,,,,,,
63891,20240309,-86.61,32.85,0.185,,,,0.21,,,,0.287,,,,0.267,,,,,,,,0.197,,,,,,,
63891,20240310,-86.61,32.85,0.195,,,,0.224,,,,0.299,,,,0.286,,,,,,,,0.21,,,,,,,
63891,20240311,-86.61,32.85,0.196,,,,0.226,,,,0.302,,,,0.296,,,,,,,,0.211,,,,,,,
63891,20240312,-86.61,32.85,0.197,,,,0.228,,,,0.303,,,,0.299,,,,,,,,0.212,,,,,,,
63891,20240313,-86.61,32.85,0.197,,,,0.228,,,,0.303,,,,0.3,,,,,,,,0.213,,,,,,,
63891,20240314,-86.61,32.85,0.196,,,,0.228,,,,0.303,,,,0.299,,,,,,,,0.212,,,,,,,
63891,20240315,-86.61,32.85,0.194,,,,0.226,,,,0.301,,,,0.297,,,,,,,,0.21,,,,,,,
63891,20240316,-86.61,32.85,0.158,,,,0.192,,,,0.286,,,,0.278,,,,,,,,0.175,,,,,,,
63891,20240317,-86.61,32.85,0.146,,,,0.175,,,,0.268,,,,0.249,,,,,,,,0.16,,,,,,,
63891,20240318,-86.61,32.85,0.144,,,,0.171,,,,0.262,,,,0.233,,,,,,,,0.157,,,,,,,
63891,20240319,-86.61,32.85,0.144,,,,0.17,,,,0.26,,,,0.227,,,,,,,,0.157,,,,,,,
63891,20240320,-86.61,32.85,0.144,,,,0.17,,,,0.259,,,,0.224,,,,,,,,0.157,,,,,,,
63891,20240321,-86.61,32.85,0.143,,,,0.17,,,,0.258,,,,0.222,,,,,,,,0.156,,,,,,,
63891,20240322,-86.61,32.85,0.143,,,,0.169,,,,0.257,,,,0.221,,,,,,,,0.156,,,,,,,
63891,20240323,-86.61,32.85,0.143,,,,0.168,,,,0.257,,,,0.221,,,,,,,,0.156,,,,,,,
63891,20240324,-86.61,32.85,0.143,,,,0.167,,,,0.256,,,,0.22,,,,,,,,0.155,,,,,,,
63891,20240325,-86.61,32.85,0.14,,,,0.165,,,,0.254,,,,0.219,,,,,,,,0.153,,,,,,,
63891,20240326,-86.61,32.85,0.137,,,,0.162,,,,0.252,,,,0.217,,,,,,,,0.15,,,,,,,
63891,20240327,-86.61,32.85,0.139,,,,0.163,,,,0.256,,,,0.22,,,,,,,,0.151,,,,,,,
63891,20240328,-86.61,32.85,0.141,,,,0.165,,,,0.258,,,,0.223,,,,,,,,0.153,,,,,,,
63891,20240329,-86.61,32.85,0.142,,,,0.166,,,,0.26,,,,0.225,,,,,,,,0.154,,,,,,,
63891,20240330,-86.61,32.85,0.142,,,,0.166,,,,0.26,,,,0.226,,,,,,,,0.154,,,,,,,
63891,20240331,-86.61,32.85,0.142,,,,0.166,,,,0.26,,,,0.226,,,,,,,,0.154,,,,,,,
63891,20240401,-86.61,32.85,0.141,,,,0.166,,,,0.259,,,,0.226,,,,,,,,0.154,,,,,,,
63891,20240402,-86.61,32.85,0.141,,,,0.165,,,,0.259,,,,0.226,,,,,,,,0.153,,,,,,,
63891,20240403,-86.61,32.85,0.138,,,,0.163,,,,0.254,,,,0.227,,,,,,,,0.151,,,,,,,
63891,20240404,-86.61,32.85,0.138,,,,0.165,,,,0.255,,,,0.23,,,,,,,,0.152,,,,,,,
63891,20240405,-86.61,32.85,0.138,,,,0.165,,,,0.255,,,,0.231,,,,,,,,0.152,,,,,,,
63891,20240406,-86.61,32.85,0.138,,,,0.165,,,,0.254,,,,0.23,,,,,,,,0.151,,,,,,,
63891,20240407,-86.61,32.85,0.138,,,,0.164,,,,0.253,,,,0.23,,,,,,,,0.151,,,,,,,
63891,20240408,-86.61,32.85,0.138,,,,0.164,,,,0.252,,,,0.229,,,,,,,,0.151,,,,,,,
63891,20240409,-86.61,32.85,0.137,,,,0.164,,,,0.252,,,,0.229,,,,,,,,0.151,,,,,,,
63891,20240410,-86.61,32.85,0.135,,,,0.161,,,,0.248,,,,0.221,,,,,,,,0.148,,,,,,,
63891,20240411,-86.61,32.85,0.135,,,,0.16,,,,0.248,,,,0.219,,,,,,,,0.148,,,,,,,
63891,20240412,-86.61,32.85,0.138,,,,0.163,,,,0.252,,,,0.222,,,,,,,,0.151,,,,,,,
63891,20240413,-86.61,32.85,0.14,,,,0.166,,,,0.255,,,,0.225,,,,,,,,0.153,,,,,,,
63891,20240414,-86.61,32.85,0.142,,,,0.168,,,,0.257,,,,0.227,,,,,,,,0.155,,,,,,,
63891,20240415,-86.61,32.85,0.143,,,,0.169,,,,0.258,,,,0.228,,,,,,,,0.156,,,,,,,
63891,20240416,-86.61,32.85,0.144,,,,0.171,,,,0.259,,,,0.229,,,,,,,,0.157,,,,,,,
63891,20240417,-86.61,32.85,0.144,,,,0.171,,,,0.26,,,,0.23,,,,,,,,0.158,,,,,,,
63891,20240418,-86.61,32.85,0.14,,,,0.167,,,,0.252,,,,0.223,,,,,,,,0.154,,,,,,,
63891,20240419,-86.61,32.85,0.133,,,,0.162,,,,0.243,,,,0.215,,,,,,,,0.148,,,,,,,
63891,20240420,-86.61,32.85,0.128,,,,0.157,,,,0.237,,,,0.209,,,,,,,,0.143,,,,,,,
63891,20240421,-86.61,32.85,0.124,,,,0.154,,,,0.232,,,,0.204,,,,,,,,0.139,,,,,,,
63891,20240422,-86.61,32.85,0.121,,,,0.152,,,,0.229,,,,0.201,,,,,,,,0.137,,,,,,,
63891,20240423,-86.61,32.85,0.119,,,,0.151,,,,0.227,,,,0.199,,,,,,,,0.135,,,,,,,
63891,20240424,-86.61,32.85,0.118,,,,0.151,,,,0.225,,,,0.197,,,,,,,,0.134,,,,,,,
63891,20240425,-86.61,32.85,0.117,,,,0.15,,,,0.224,,,,0.195,,,,,,,,0.133,,,,,,,
63891,20240426,-86.61,32.85,0.116,,,,0.149,,,,0.222,,,,0.194,,,,,,,,0.132,,,,,,,
63891,20240427,-86.61,32.85,0.115,,,,0.147,,,,0.221,,,,0.192,,,,,,,,0.131,,,,,,,
63891,20240428,-86.61,32.85,0.113,,,,0.146,,,,0.219,,,,0.191,,,,,,,,0.129,,,,,,,
63891,20240429,-86.61,32.85,0.11,,,,0.143,,,,0.216,,,,0.189,,,,,,,,0.127,,,,,,,
63891,20240430,-86.61,32.85,0.107,,,,0.14,,,,0.213,,,,0.187,,,,,,,,0.123,,,,,,,
63891,20240501,-86.61,32.85,0.103,,,,0.138,,,,0.21,,,,0.185,,,,,,,,0.121,,,,,,,
